(260405) = 2004 XQ9 = 2009 SW200

Discovered at Catalina on 2004-12-02 by CSS.

Orbit

Orbit type: Main Belt

Note: WebGL enabled browser required.

epoch2024-03-31.0
epoch JD2460400.5
perihelion date2021-07-04.80370
perihelion JD2459400.30370
argument of perihelion (°)137.47053
ascending node (°)262.51185
inclination (°)7.90367
eccentricity0.0768281
perihelion distance (AU)2.9354845
Tisserand w.r.t. Jupiter3.2
ΔV w.r.t. Earth (km/sec)10.9
semimajor axis (AU)3.1797811
mean anomaly (°)173.85743
mean daily motion (°/day)0.17382330
aphelion distance (AU)3.424
period (years)5.67
P-vector [x]0.75987555
P-vector [y]0.55332385
P-vector [z]0.34120648
Q-vector [x]-0.63561137
Q-vector [y]0.74248460
Q-vector [z]0.21145877
absolute magnitude15.35
phase slope0.15
uncertainty0
referenceMPEC 2024-C115
observations used536
oppositions14
arc length (days)7201
first opposition used2003
last opposition used2023
residual rms (arc-secs)0.72
perturbers coarse indicatorM-v
perturbers precise indicator003Ek
first observation date used2003-07-23.0
last observation date used2023-04-10.0
computer nameMPCLINUX
JD of orbit computation2456909.161701
perihelion JD uncertainty (days)3.2446E-04
argument of perihelion uncertainty (°)7.1804E-05
ascending node uncertainty (°)4.5823E-05
inclination uncertainty (°)5.4702E-06
eccentricity uncertainty 5.1387E-08
perihelion distance uncertainty (AU)1.7672E-07
Minimum Orbit Intersection Distances (in AU)
for orbit epoch: 2460200.5, reference: E2024-CB5
Mercury2.61422
Venus2.2187
Earth1.94851
Mars1.43683
Jupiter1.92443
Saturn6.0076
Uranus15.155
Neptune26.9317

Observations

543 total observations over interval: 2003 07 23.47095 – 2023 04 10.340956
These data are available for download (format description).

Date (UT) J2000 RA J2000 Dec Magn Location Ref
2003 07 23.47095 22 45 28.32 +02 55 00.5 20.2   644 – Palomar Mountain/NEAT MPS 299364
2003 07 23.48229 22 45 28.09 +02 55 02.2 20.1   644 – Palomar Mountain/NEAT MPS 299364
2003 07 23.49367 22 45 27.87 +02 55 03.0 20.0   644 – Palomar Mountain/NEAT MPS 299364
2003 08 23.31422 22 28 15.65 +02 36 42.7 19.6   644 – Palomar Mountain/NEAT MPS 299364
2003 08 23.39396 22 28 12.03 +02 36 29.3 19.8   644 – Palomar Mountain/NEAT MPS 299364
2003 08 23.45731 22 28 09.17 +02 36 18.5 19.8   644 – Palomar Mountain/NEAT MPS 299364
2003 10 19.136960 22 00 39.290 -01 10 40.87 20.35 V 645 – Apache Point-Sloan Digital Sky Survey MPS 299364
2003 10 19.140432 22 00 39.292 -01 10 41.52 21.05   645 – Apache Point-Sloan Digital Sky Survey MPS 299364
2004 12 02.35671 04 46 09.59 +24 34 21.3 18.7 R 703 – Catalina Sky Survey MPS 121801
2004 12 02.36494 04 46 09.08 +24 34 18.9 18.7 R 703 – Catalina Sky Survey MPS 121801
2004 12 02.37315 04 46 08.66 +24 34 17.7 18.3 R 703 – Catalina Sky Survey MPS 121801
2004 12 02.38137 04 46 08.17 +24 34 15.2 18.2 R 703 – Catalina Sky Survey MPS 121801
2004 12 08.30291 04 40 52.68 +24 09 54.0 19.0   704 – Lincoln Laboratory ETS, New Mexico MPS 121801
2004 12 08.31708 04 40 51.93 +24 09 49.4 19.4   704 – Lincoln Laboratory ETS, New Mexico MPS 121801
2004 12 08.34086 04 40 50.63 +24 09 44.5 19.3   704 – Lincoln Laboratory ETS, New Mexico MPS 121801
2004 12 08.35784 04 40 49.70 +24 09 39.2 19.5   704 – Lincoln Laboratory ETS, New Mexico MPS 121801
2004 12 10.13883 04 39 16.78 +24 02 07.5 19.4 V 691 – Steward Observatory, Kitt Peak-Spacewatch MPS 121801
2004 12 10.16461 04 39 15.50 +24 02 02.9 19.1 V 691 – Steward Observatory, Kitt Peak-Spacewatch MPS 121801
2004 12 10.19053 04 39 14.04 +24 01 54.7 19.3 V 691 – Steward Observatory, Kitt Peak-Spacewatch MPS 121801
2004 12 10.27128 04 39 09.66 +24 01 34.6 19.5   704 – Lincoln Laboratory ETS, New Mexico MPS 121801
2004 12 10.28395 04 39 09.05 +24 01 31.6 19.5   704 – Lincoln Laboratory ETS, New Mexico MPS 121801
2004 12 10.30892 04 39 07.66 +24 01 24.7 19.9   704 – Lincoln Laboratory ETS, New Mexico MPS 121801
2004 12 10.32151 04 39 06.99 +24 01 22.1 19.4   704 – Lincoln Laboratory ETS, New Mexico MPS 121801
2004 12 14.22943 04 35 48.37 +23 44 40.3 19.9   704 – Lincoln Laboratory ETS, New Mexico MPS 121801
2004 12 14.24245 04 35 47.73 +23 44 36.6 19.6   704 – Lincoln Laboratory ETS, New Mexico MPS 121801
2004 12 14.25549 04 35 47.03 +23 44 33.5 19.9   704 – Lincoln Laboratory ETS, New Mexico MPS 121801
2006 02 23.25215 10 03 58.12 +00 30 54.9 19.7 R 699 – Lowell Observatory-LONEOS MPS 299364
2006 02 23.27499 10 03 56.98 +00 31 00.3   699 – Lowell Observatory-LONEOS MPS 299364
2006 02 23.29782 10 03 55.88 +00 31 05.5   699 – Lowell Observatory-LONEOS MPS 299364
2006 02 23.32064 10 03 54.96 +00 31 10.7   699 – Lowell Observatory-LONEOS MPS 299364
2009 08 26.32536 00 39 50.75 +16 02 39.8   704 – Lincoln Laboratory ETS, New Mexico MPS 407091
2009 08 26.33795 00 39 50.47 +16 02 40.2   704 – Lincoln Laboratory ETS, New Mexico MPS 407091
2009 08 26.36315 00 39 49.86 +16 02 40.5   704 – Lincoln Laboratory ETS, New Mexico MPS 407091
2009 09 22.34100 00 24 50.14 +15 11 23.8 19.2 V 703 – Catalina Sky Survey MPS 297151
2009 09 22.34971 00 24 49.68 +15 11 20.5 19.5 V 703 – Catalina Sky Survey MPS 297151
2009 09 22.35837 00 24 49.32 +15 11 18.5 19.4 V 703 – Catalina Sky Survey MPS 297151
2009 09 22.36705 00 24 48.92 +15 11 16.5 19.1 V 703 – Catalina Sky Survey MPS 297151
2009 09 25.21219 00 22 45.19 +14 58 36.3 18.8 V 703 – Catalina Sky Survey MPS 297151
2009 09 25.21830 00 22 44.97 +14 58 35.3 19.1 V 703 – Catalina Sky Survey MPS 297151
2009 09 25.22428 00 22 44.65 +14 58 33.0 18.9 V 703 – Catalina Sky Survey MPS 297151
2009 09 25.23025 00 22 44.40 +14 58 32.0 18.9 V 703 – Catalina Sky Survey MPS 297151
2009 09 26.27557 00 21 58.26 +14 53 36.5   704 – Lincoln Laboratory ETS, New Mexico MPS 407091
2009 09 26.28773 00 21 57.77 +14 53 33.2   704 – Lincoln Laboratory ETS, New Mexico MPS 407091
2009 09 26.29992 00 21 57.23 +14 53 30.3   704 – Lincoln Laboratory ETS, New Mexico MPS 407091
2009 09 26.31211 00 21 56.69 +14 53 26.8   704 – Lincoln Laboratory ETS, New Mexico MPS 407091
2009 09 26.32431 00 21 56.09 +14 53 22.3   704 – Lincoln Laboratory ETS, New Mexico MPS 407091
2009 10 15.83236 00 08 13.01 +13 01 00.6 19.1 V J75 – OAM Observatory, La Sagra MPS 299364
2009 10 15.84486 00 08 12.58 +13 00 56.2 18.3 V J75 – OAM Observatory, La Sagra MPS 299364
2009 10 15.85728 00 08 12.09 +13 00 51.4 19.1 V J75 – OAM Observatory, La Sagra MPS 299364
2009 10 16.23263 00 07 58.07 +12 58 30.2 19.7   704 – Lincoln Laboratory ETS, New Mexico MPS 299512
2009 10 16.24579 00 07 57.49 +12 58 24.4 19.3   704 – Lincoln Laboratory ETS, New Mexico MPS 299512
2009 10 16.25896 00 07 56.93 +12 58 18.8 19.6   704 – Lincoln Laboratory ETS, New Mexico MPS 299512
2009 10 16.27214 00 07 56.49 +12 58 15.0 19.5   704 – Lincoln Laboratory ETS, New Mexico MPS 299512
2009 10 24.22729 00 03 32.68 +12 08 02.5 19.1 V 703 – Catalina Sky Survey MPS 300658
2009 10 24.23679 00 03 32.40 +12 07 59.5 19.3 V 703 – Catalina Sky Survey MPS 300658
2009 10 24.24662 00 03 32.11 +12 07 55.2 19.3 V 703 – Catalina Sky Survey MPS 300658
2009 10 24.25631 00 03 31.78 +12 07 50.3 19.2 V 703 – Catalina Sky Survey MPS 300658
2009 12 20.09730 00 10 39.32 +09 13 22.7 20.4 V G96 – Mt. Lemmon Survey MPS 308624
2009 12 20.10394 00 10 39.61 +09 13 23.7 20.3 V G96 – Mt. Lemmon Survey MPS 308624
2009 12 20.11056 00 10 39.86 +09 13 23.8 20.0 V G96 – Mt. Lemmon Survey MPS 308624
2009 12 20.11696 00 10 40.11 +09 13 23.6 20.2 V G96 – Mt. Lemmon Survey MPS 308624
2010 01 06.10858 00 24 48.09 +09 46 03.2 20.7 V G96 – Mt. Lemmon Survey MPS 309330
2010 01 06.11567 00 24 48.45 +09 46 03.9 20.4 V G96 – Mt. Lemmon Survey MPS 309330
2010 01 06.12282 00 24 48.88 +09 46 05.1 20.5 V G96 – Mt. Lemmon Survey MPS 309330
2010 01 06.12993 00 24 49.28 +09 46 06.5 20.7 V G96 – Mt. Lemmon Survey MPS 309330
2010 12 13.34674 07 03 46.26 +19 42 50.8   691 – Steward Observatory, Kitt Peak-Spacewatch MPS 358863
2010 12 13.36450 07 03 45.45 +19 42 49.3   691 – Steward Observatory, Kitt Peak-Spacewatch MPS 358863
2010 12 13.38228 07 03 44.68 +19 42 47.8   691 – Steward Observatory, Kitt Peak-Spacewatch MPS 358863
2011 01 03.99278 06 45 23.78 +19 15 19.1 18.2 R 106 – Crni Vrh MPS 363344
2011 01 04.00266 06 45 23.31 +19 15 17.1 18.7 R 106 – Crni Vrh MPS 363344
2011 01 04.01257 06 45 22.79 +19 15 16.6 18.6 R 106 – Crni Vrh MPS 363344
2011 01 04.02247 06 45 22.22 +19 15 15.6 18.9 R 106 – Crni Vrh MPS 363344
2011 12 04.59832 11 34 44.428 -05 23 04.76 21.4 w F51 – Pan-STARRS 1, Haleakala MPS 403734
2011 12 04.60295 11 34 44.628 -05 23 06.69 21.7 w F51 – Pan-STARRS 1, Haleakala MPS 403734
2011 12 04.60757 11 34 44.826 -05 23 08.61 21.7 w F51 – Pan-STARRS 1, Haleakala MPS 403734
2011 12 04.61222 11 34 45.033 -05 23 10.77 21.6 w F51 – Pan-STARRS 1, Haleakala MPS 403734
2012 03 15.33773 11 26 42.39 -08 33 41.5 19.9 V G96 – Mt. Lemmon Survey MPS 417107
2012 03 15.34524 11 26 42.03 -08 33 39.0 19.9 V G96 – Mt. Lemmon Survey MPS 417107
2012 03 15.35277 11 26 41.67 -08 33 36.9 20.0 V G96 – Mt. Lemmon Survey MPS 417107
2012 03 15.36030 11 26 41.35 -08 33 34.6 19.9 V G96 – Mt. Lemmon Survey MPS 417107
2012 03 22.30353 11 21 42.22 -07 58 55.0 20.1 V G96 – Mt. Lemmon Survey MPS 418326
2012 03 22.31104 11 21 41.90 -07 58 52.8 20.1 V G96 – Mt. Lemmon Survey MPS 418326
2012 03 22.31858 11 21 41.58 -07 58 50.5 20.1 V G96 – Mt. Lemmon Survey MPS 418326
2012 03 22.32603 11 21 41.25 -07 58 48.4 20.2 V G96 – Mt. Lemmon Survey MPS 418326
2013 06 01.36731 15 40 23.171 -23 38 47.28 20.0 w F51 – Pan-STARRS 1, Haleakala MPS 469782
2013 06 01.38212 15 40 22.486 -23 38 43.43 20.0 w F51 – Pan-STARRS 1, Haleakala MPS 469782
2013 06 01.39692 15 40 21.791 -23 38 39.55 20.0 w F51 – Pan-STARRS 1, Haleakala MPS 469782
2013 06 01.41174 15 40 21.104 -23 38 35.62 20.0 w F51 – Pan-STARRS 1, Haleakala MPS 469782
2014 06 21.55872 21 10 31.335 -09 06 14.19 20.6 i F51 – Pan-STARRS 1, Haleakala MPS 521114
2014 06 21.57005 21 10 31.152 -09 06 12.50 20.5 i F51 – Pan-STARRS 1, Haleakala MPS 521114
